When you browse on this site, cookies collect data to enhance your experience and personalize the content and advertising you see.
Visit our Privacy Policy to learn more. By continuing to use the site, you agree to this use of cookies and data.
  • In United Kingdom
  • List of Countries
  • For 7 days
  • Water Temperature
  • Weather Map
  • Weather Widgets
  • user-avatar
    Login

    Hourly Weather Kobyzhcha

    Today, 16 October, Wednesday

    Time Temperature Precipitation Wind Pressure Humidity
    00:00 +15°C° 0 mm 2 mps 754 mmHg 66%
    01:00 +15°C° 0 mm 2 mps 755 mmHg 67%
    02:00 +14°C° 0 mm 2 mps 755 mmHg 69%
    03:00 +14°C° 0 mm 2 mps 755 mmHg 70%
    04:00 +14°C° 0 mm 2 mps 754 mmHg 72%
    05:00 +13°C° 0 mm 2 mps 754 mmHg 74%
    06:00 +14°C° 0 mm 2 mps 754 mmHg 72%
    07:00 +13°C° 0 mm 3 mps 755 mmHg 71%
    08:00 +14°C° 0 mm 3 mps 755 mmHg 69%
    09:00 +17°C° 0 mm 3 mps 755 mmHg 63%
    10:00 +19°C° 0 mm 4 mps 754 mmHg 57%
    11:00 +21°C° 0 mm 4 mps 754 mmHg 51%
    12:00 +21°C° 0 mm 4 mps 754 mmHg 49%
    13:00 +22°C° 0 mm 4 mps 754 mmHg 47%
    14:00 +23°C° 0 mm 4 mps 754 mmHg 45%
    15:00 +21°C° 0 mm 4 mps 754 mmHg 49%
    16:00 +20°C° 0 mm 3 mps 753 mmHg 54%
    17:00 +18°C° 0 mm 3 mps 753 mmHg 58%
    18:00 +18°C° 0 mm 3 mps 753 mmHg 61%
    19:00 +17°C° 0 mm 3 mps 753 mmHg 63%
    20:00 +15°C° 0 mm 4 mps 753 mmHg 65%
    21:00 +16°C° 0 mm 3 mps 753 mmHg 67%
    22:00 +14°C° 0 mm 3 mps 753 mmHg 68%
    23:00 +14°C° 0 mm 3 mps 753 mmHg 70%

    Tomorrow, 17 October, Thursday

    Time Temperature Precipitation Wind Pressure Humidity
    00:00 +13°C° 0 mm 3 mps 753 mmHg 67%
    01:00 +13°C° 0 mm 3 mps 753 mmHg 64%
    02:00 +12°C° 0 mm 3 mps 754 mmHg 61%
    03:00 +12°C° 0 mm 3 mps 753 mmHg 60%
    04:00 +12°C° 0 mm 3 mps 753 mmHg 59%
    05:00 +11°C° 0 mm 3 mps 753 mmHg 58%
    06:00 +13°C° 0 mm 2 mps 753 mmHg 57%
    07:00 +13°C° 0 mm 2 mps 753 mmHg 57%
    08:00 +14°C° 0 mm 2 mps 753 mmHg 56%
    09:00 +16°C° 0 mm 3 mps 753 mmHg 52%
    10:00 +18°C° 0 mm 3 mps 753 mmHg 47%
    11:00 +20°C° 0 mm 3 mps 753 mmHg 43%
    12:00 +20°C° 0 mm 3 mps 753 mmHg 41%
    13:00 +21°C° 0 mm 3 mps 753 mmHg 40%
    14:00 +22°C° 0 mm 3 mps 753 mmHg 38%
    15:00 +20°C° 0 mm 2 mps 753 mmHg 43%
    16:00 +19°C° 0 mm 2 mps 752 mmHg 47%
    17:00 +19°C° 0 mm 1 mps 752 mmHg 52%
    18:00 +18°C° 0 mm 1 mps 752 mmHg 55%
    19:00 +16°C° 0 mm 1 mps 753 mmHg 58%
    20:00 +15°C° 0 mm 1 mps 753 mmHg 61%
    21:00 +15°C° 0 mm 1 mps 753 mmHg 64%
    22:00 +14°C° 0 mm 1 mps 753 mmHg 67%
    23:00 +14°C° 0 mm 2 mps 753 mmHg 71%

    Day after tomorrow, 18 October, Friday

    Time Temperature Precipitation Wind Pressure Humidity
    00:00 +13°C° 0 mm 2 mps 753 mmHg 73%
    01:00 +13°C° 0 mm 2 mps 753 mmHg 76%
    02:00 +13°C° 0 mm 2 mps 753 mmHg 78%
    03:00 +12°C° 0 mm 2 mps 753 mmHg 78%
    04:00 +12°C° 0 mm 2 mps 754 mmHg 78%
    05:00 +10°C° 0 mm 2 mps 754 mmHg 78%
    06:00 +12°C° 0 mm 1 mps 754 mmHg 75%
    07:00 +12°C° 0 mm 1 mps 754 mmHg 72%
    08:00 +13°C° 0 mm 1 mps 754 mmHg 69%
    09:00 +14°C° 0 mm 1 mps 754 mmHg 62%
    10:00 +16°C° 0 mm 1 mps 754 mmHg 55%
    11:00 +19°C° 0 mm 1 mps 754 mmHg 49%
    12:00 +19°C° 0 mm 1 mps 754 mmHg 47%
    13:00 +20°C° 0 mm 1 mps 754 mmHg 45%
    14:00 +21°C° 0 mm 1 mps 754 mmHg 44%
    15:00 +19°C° 0 mm 1 mps 754 mmHg 48%
    16:00 +18°C° 0 mm 1 mps 754 mmHg 52%
    17:00 +16°C° 0 mm 1 mps 754 mmHg 57%
    18:00 +15°C° 0 mm 1 mps 754 mmHg 59%
    19:00 +14°C° 0 mm 1 mps 754 mmHg 61%
    20:00 +14°C° 0 mm 1 mps 754 mmHg 63%
    21:00 +13°C° 0 mm 1 mps 754 mmHg 65%
    22:00 +13°C° 0 mm 1 mps 755 mmHg 66%
    23:00 +13°C° 0 mm 1 mps 755 mmHg 67%

    19 October, Saturday

    Time Temperature Precipitation Wind Pressure Humidity
    00:00 +12°C° 0 mm 1 mps 755 mmHg 69%
    01:00 +12°C° 0 mm 1 mps 755 mmHg 70%
    02:00 +12°C° 0 mm 1 mps 755 mmHg 71%
    03:00 +10°C° 0 mm 2 mps 755 mmHg 72%
    04:00 +10°C° 0 mm 2 mps 755 mmHg 73%
    05:00 +10°C° 0 mm 2 mps 755 mmHg 75%
    06:00 +10°C° 0 mm 2 mps 755 mmHg 73%
    07:00 +12°C° 0 mm 2 mps 755 mmHg 71%
    08:00 +12°C° 0 mm 2 mps 755 mmHg 70%
    09:00 +14°C° 0 mm 2 mps 755 mmHg 64%
    10:00 +16°C° 0 mm 2 mps 755 mmHg 58%
    11:00 +18°C° 0 mm 2 mps 756 mmHg 52%
    12:00 +19°C° 0 mm 2 mps 755 mmHg 50%
    13:00 +19°C° 0 mm 3 mps 755 mmHg 49%
    14:00 +20°C° 0 mm 3 mps 755 mmHg 47%
    15:00 +19°C° 0 mm 2 mps 755 mmHg 53%
    16:00 +18°C° 0 mm 2 mps 755 mmHg 58%
    17:00 +16°C° 0 mm 2 mps 755 mmHg 64%
    18:00 +16°C° 0 mm 2 mps 755 mmHg 66%
    19:00 +14°C° 0 mm 3 mps 755 mmHg 69%
    20:00 +13°C° 0 mm 3 mps 755 mmHg 71%
    21:00 +13°C° 0 mm 3 mps 755 mmHg 72%
    22:00 +12°C° 0 mm 3 mps 755 mmHg 73%
    23:00 +12°C° 0 mm 3 mps 756 mmHg 75%

    20 October, Sunday

    Time Temperature Precipitation Wind Pressure Humidity
    00:00 +12°C° 0 mm 3 mps 756 mmHg 76%
    01:00 +11°C° 0 mm 3 mps 756 mmHg 78%
    02:00 +11°C° 0 mm 3 mps 756 mmHg 79%
    03:00 +11°C° 0 mm 3 mps 756 mmHg 80%
    04:00 +11°C° 0 mm 3 mps 756 mmHg 81%
    05:00 +10°C° 0 mm 3 mps 756 mmHg 83%
    06:00 +11°C° 0 mm 3 mps 756 mmHg 80%
    07:00 +12°C° 0 mm 3 mps 756 mmHg 77%
    08:00 +12°C° 0 mm 3 mps 756 mmHg 74%
    09:00 +14°C° 0 mm 3 mps 757 mmHg 67%
    10:00 +17°C° 0 mm 3 mps 757 mmHg 61%
    11:00 +19°C° 0 mm 4 mps 757 mmHg 54%
    12:00 +20°C° 0 mm 4 mps 757 mmHg 51%
    13:00 +20°C° 0 mm 4 mps 756 mmHg 48%
    14:00 +21°C° 0 mm 4 mps 756 mmHg 45%
    15:00 +20°C° 0 mm 4 mps 756 mmHg 50%
    16:00 +18°C° 0 mm 3 mps 756 mmHg 55%
    17:00 +17°C° 0 mm 3 mps 756 mmHg 60%
    18:00 +16°C° 0 mm 3 mps 756 mmHg 62%
    19:00 +14°C° 0 mm 3 mps 756 mmHg 65%
    20:00 +14°C° 0 mm 3 mps 757 mmHg 67%
    21:00 +13°C° 0 mm 3 mps 757 mmHg 69%
    22:00 +13°C° 0 mm 3 mps 757 mmHg 70%
    23:00 +12°C° 0 mm 3 mps 757 mmHg 72%

    21 October, Monday

    Time Temperature Precipitation Wind Pressure Humidity
    00:00 +12°C° 0 mm 3 mps 757 mmHg 72%
    01:00 +12°C° 0 mm 3 mps 757 mmHg 72%
    02:00 +12°C° 0 mm 3 mps 757 mmHg 72%
    03:00 +11°C° 0 mm 3 mps 757 mmHg 73%
    04:00 +11°C° 0 mm 3 mps 757 mmHg 73%
    05:00 +11°C° 0 mm 3 mps 757 mmHg 74%
    06:00 +11°C° 0 mm 3 mps 757 mmHg 72%
    07:00 +12°C° 0 mm 3 mps 758 mmHg 71%
    08:00 +12°C° 0 mm 3 mps 758 mmHg 69%
    09:00 +14°C° 0 mm 3 mps 758 mmHg 63%
    10:00 +17°C° 0 mm 3 mps 758 mmHg 57%
    11:00 +19°C° 0 mm 4 mps 758 mmHg 51%
    12:00 +20°C° 0 mm 4 mps 758 mmHg 48%
    13:00 +21°C° 0 mm 4 mps 758 mmHg 46%
    14:00 +21°C° 0 mm 4 mps 757 mmHg 43%
    15:00 +20°C° 0 mm 3 mps 757 mmHg 48%
    16:00 +18°C° 0 mm 3 mps 757 mmHg 52%
    17:00 +17°C° 0 mm 2 mps 757 mmHg 57%
    18:00 +16°C° 0 mm 2 mps 757 mmHg 59%
    19:00 +15°C° 0 mm 2 mps 757 mmHg 62%
    20:00 +14°C° 0 mm 3 mps 757 mmHg 64%
    21:00 +13°C° 0 mm 3 mps 757 mmHg 65%
    22:00 +13°C° 0 mm 3 mps 757 mmHg 67%
    23:00 +12°C° 0 mm 3 mps 757 mmHg 68%
    Show more